Terug naar catalogus

STARLINK-37160

ActiefCommunicatieVLEO
NORAD 68282·PAYLOAD·🇺🇸 United States

Gelanceerd Mar 19, 2026 vanaf Vandenberg Space Force Base

Loading…

Volgende Passages (komende 24 uur)

TLE

VersSource: CelesTrak SupGP

Epoch: Sep 15, 2026, 03:54 UTC

1 68282C 26055W   26258.16298611  .00040122  00000+0  11855-2 0  2589
2 68282  53.1577 154.6424 0001303  85.2547 281.8411 15.34368586    15

Volg STARLINK-37160 in realtime met AllMySat

Download on the App Store